Theta_e
314 314 313 313 314 313 314 313 311 310 310 309 308 307 307 307 306 306 306 306 305 305 304 304 304 304 304 304 304 303 303 302 302 302 303 303 303 303 304 306 310 314
315 313 313 314 313 314 314 313 311 310 310 309 308 307 306 306 306 306 306 306 305 304 304 303 303 304 304 304 304 304 304 303 302 303 303 303 302 302 302 303 304 307
315 314 314 313 313 314 314 313 311 310 310 309 308 307 306 306 306 306 306 305 305 304 303 303 303 304 304 304 304 304 304 303 303 302 303 303 304 303 302 302 302 303
314 313 313 312 312 312 313 313 311 310 309 309 309 307 305 305 305 306 306 305 304 304 303 303 303 303 304 303 303 303 303 303 303 303 303 303 304 304 304 303 302 302
312 313 313 311 311 311 312 312 311 310 309 309 309 307 305 305 305 305 306 304 304 303 303 303 303 303 303 303 303 303 303 303 303 303 303 302 303 304 304 305 304 303
311 313 313 311 310 310 310 311 310 310 309 309 309 307 305 305 305 306 305 304 303 303 303 303 303 303 303 303 303 303 303 303 302 302 302 302 302 302 303 305 305 305
311 312 312 310 310 310 310 310 310 310 310 309 308 307 305 305 305 305 304 303 303 303 303 303 303 303 303 303 303 302 303 303 303 303 303 302 302 302 302 303 305 306
310 312 311 310 310 310 310 310 310 310 309 309 308 306 305 306 306 305 303 303 303 303 303 303 303 303 302 302 302 302 303 303 303 303 303 302 302 302 302 302 303 304
310 312 312 310 310 310 310 309 309 309 309 308 307 305 305 306 305 304 303 303 303 303 303 303 303 303 302 302 302 302 302 302 302 302 302 302 302 302 303 303 303 303
310 312 312 310 310 311 310 310 309 309 309 308 306 306 306 305 304 303 303 303 303 303 303 303 303 303 302 302 302 302 302 302 302 302 302 301 302 302 303 303 304 304
311 312 312 311 310 311 310 309 309 309 308 308 307 306 306 304 303 303 303 303 303 304 304 303 303 303 302 302 302 302 301 302 302 301 301 301 301 301 302 302 302 302
312 312 312 310 310 310 310 309 309 309 308 308 307 306 305 303 303 303 304 304 304 304 304 303 303 302 302 302 301 301 301 301 301 301 300 300 300 300 301 301 301 301
313 312 311 311 310 310 310 309 309 308 309 308 307 305 304 303 303 303 304 304 304 304 303 303 302 302 301 301 301 300 300 300 300 300 300 300 300 300 300 301 301 301
316 314 312 311 310 310 310 310 309 309 309 308 306 305 304 304 304 304 304 304 304 303 303 302 302 301 301 301 301 300 299 298 298 298 298 299 299 299 299 300 300 300
319 317 313 311 311 311 310 310 310 309 309 307 305 304 304 304 304 304 304 304 303 302 302 302 302 302 301 301 301 300 299 297 296 297 298 298 299 299 298 299 299 299
320 318 314 312 312 311 311 311 310 309 308 307 305 305 305 305 305 305 304 303 302 302 302 302 302 302 302 301 301 300 298 297 296 296 298 298 298 298 298 298 298 298
319 317 314 313 313 312 312 311 310 309 307 306 305 305 305 305 305 305 303 302 302 302 302 303 302 302 301 301 300 300 298 297 296 297 298 298 298 298 298 298 297 297
317 316 314 314 313 313 312 311 310 309 307 305 305 305 305 306 305 304 303 302 303 303 302 302 301 301 300 300 299 298 298 297 297 297 298 298 298 298 297 297 297 297
318 317 314 313 314 313 312 311 309 307 305 305 305 306 306 305 304 303 303 303 303 302 302 301 300 299 299 298 297 296 296 297 297 297 297 298 297 297 297 297 296 296
318 315 313 314 314 313 312 310 307 305 304 305 306 306 305 304 303 303 303 303 302 301 300 299 298 297 296 295 295 295 295 296 296 296 297 297 297 297 296 296 296 295
316 314 314 314 313 312 310 307 304 304 305 306 305 305 305 304 303 303 302 301 300 299 298 297 296 295 295 295 295 296 296 296 295 296 296 296 296 296 296 295 295 294
314 314 313 313 312 311 307 303 303 305 305 305 305 305 305 304 303 302 300 298 297 296 295 294 294 295 296 296 296 296 295 295 295 295 295 295 295 295 295 294 294 294
313 313 312 312 311 307 304 303 305 305 305 305 305 305 304 303 301 299 296 295 295 294 293 293 293 294 294 295 296 295 295 295 294 294 294 294 294 294 294 294 293 293
313 311 310 310 308 305 303 303 305 305 305 305 305 304 302 299 297 296 295 295 294 294 293 293 292 292 293 294 295 295 294 294 294 293 293 293 293 293 293 293 293 293
311 310 310 309 306 302 302 304 305 305 305 304 302 300 298 297 297 297 296 296 295 295 294 293 292 292 292 293 294 294 294 293 293 293 293 292 292 292 292 292 293 293
309 309 309 307 303 302 304 305 304 303 301 300 298 297 297 297 298 298 297 296 296 295 295 294 292 292 292 293 294 294 293 293 293 293 293 293 292 292 292 292 292 292
Wind_Speed
17 16 15 14 14 14 14 13 13 13 11 9 8 7 6 5 5 5 5 6 7 8 9 10 10 10 10 10 10 11 12 13 13 14 17 19 21 23 23 24 24 25
19 17 16 16 16 16 16 16 16 15 13 11 10 9 8 7 7 6 7 7 8 9 10 11 12 13 14 14 14 13 12 12 12 13 15 17 19 22 24 25 26 26
20 18 17 16 16 17 18 18 17 17 15 13 12 11 10 10 9 8 8 8 9 10 11 11 12 13 15 16 17 17 15 13 12 12 14 16 19 21 23 26 27 28
22 20 17 15 15 16 18 18 18 18 17 15 14 13 12 11 10 9 9 9 10 10 10 11 12 13 15 16 17 18 18 16 14 13 13 15 18 21 23 25 27 28
23 21 17 15 15 15 16 17 18 18 18 16 15 14 14 12 11 10 10 10 10 10 10 11 12 14 15 17 18 18 18 17 16 15 14 15 16 18 22 25 26 27
24 22 18 16 16 15 16 16 17 17 17 16 16 16 14 12 11 10 10 11 10 9 9 11 13 14 16 18 19 19 19 19 19 18 18 17 17 17 18 22 25 27
25 23 20 18 16 16 16 16 16 16 16 17 17 16 15 13 11 11 11 11 9 9 10 12 14 16 18 20 21 21 21 21 22 22 23 22 21 19 18 19 21 24
26 25 21 19 17 16 16 16 16 16 16 17 17 16 15 13 12 12 11 10 9 9 11 14 16 18 20 21 22 22 22 22 23 25 26 27 26 23 21 20 21 22
27 26 23 20 19 17 16 16 16 16 17 17 17 16 14 13 12 12 11 9 9 11 14 15 18 19 21 22 23 23 24 24 25 26 27 27 27 26 24 22 22 22
29 27 25 22 20 18 17 17 16 17 17 17 17 16 14 13 12 11 9 9 11 13 15 17 19 21 22 24 24 24 24 24 24 25 26 26 26 25 25 23 22 22
31 29 27 23 21 19 17 17 17 16 17 16 16 15 13 12 11 9 9 10 12 14 16 18 21 23 24 24 24 23 24 24 24 24 25 25 25 25 24 23 22 22
33 31 29 25 21 19 18 17 16 16 15 15 14 13 12 11 9 9 9 11 13 16 18 21 23 23 23 22 22 23 24 26 26 26 27 27 27 26 25 24 24 24
36 32 29 25 21 19 17 16 15 14 13 13 12 12 11 10 8 9 10 13 15 18 20 22 22 21 20 21 23 25 26 27 27 28 29 28 28 27 25 24 25 25
37 33 29 24 21 18 16 15 14 12 12 12 12 11 10 9 8 10 12 14 17 20 21 21 20 20 21 23 26 28 29 28 28 29 29 29 28 28 26 26 26 26
37 32 26 22 20 17 15 14 12 12 12 11 10 10 10 10 10 11 13 17 20 21 20 20 21 23 25 27 29 31 31 31 30 29 28 28 28 28 28 29 29 29
34 29 24 21 19 17 15 13 12 12 10 9 9 10 11 11 11 13 17 19 19 19 19 21 22 24 26 29 31 32 33 33 32 30 28 27 28 29 29 30 30 31
31 28 24 22 20 17 15 14 12 10 8 8 10 11 11 12 13 16 18 19 18 18 19 21 23 25 28 30 32 33 34 34 34 31 30 30 31 32 32 33 32 32
34 31 27 24 21 18 16 14 10 8 7 9 11 12 12 14 16 18 18 17 17 18 20 22 24 27 30 32 33 34 34 34 33 33 33 34 34 35 36 37 37 37
36 32 28 26 23 19 16 12 8 8 9 10 12 12 14 16 17 18 17 16 17 19 22 25 28 30 32 33 34 34 33 32 32 33 35 36 37 38 39 40 40 41
34 30 28 27 24 19 15 11 8 9 9 10 12 14 16 17 18 17 17 17 19 21 25 28 29 31 32 33 33 32 32 32 33 35 37 38 39 40 41 42 42 42
31 29 29 27 23 18 14 10 8 9 9 11 14 16 18 18 17 17 17 19 21 24 26 28 29 31 31 31 31 31 32 33 34 36 38 40 41 41 42 43 42 41
30 30 29 26 22 18 12 9 8 9 12 14 16 17 17 17 16 17 19 20 21 23 25 27 28 28 29 29 29 30 30 32 33 36 38 40 41 42 42 42 41 39
30 29 27 25 21 15 9 8 10 13 15 16 16 16 16 16 17 17 17 18 20 23 25 28 30 30 30 31 30 30 31 32 33 35 36 38 40 41 41 41 40 39
30 28 26 22 16 11 9 10 13 14 15 15 15 15 14 13 14 14 15 19 22 24 27 31 34 35 35 34 33 32 32 33 34 35 36 37 38 38 39 40 40 40
30 26 23 19 13 11 11 12 13 13 14 15 14 12 10 11 12 13 16 20 23 26 28 32 36 39 39 37 35 33 33 32 33 34 35 36 37 38 38 39 39 39
28 26 23 17 12 11 12 13 13 12 11 10 9 8 9 11 13 14 18 21 25 27 29 32 37 41 40 37 35 34 32 31 31 32 34 36 37 38 39 40 40 40
Wind_Direction
231 231 234 235 235 238 242 243 240 237 233 232 234 237 246 261 279 300 310 314 316 320 326 328 329 331 333 337 337 332 323 308 293 277 266 262 262 263 263 261 259 260
233 233 234 235 236 237 239 240 240 238 234 232 231 231 237 249 260 274 288 301 310 315 320 324 328 332 335 337 339 340 335 320 304 290 276 269 266 263 261 261 260 260
235 234 234 236 237 237 237 238 237 235 235 233 229 229 232 239 249 262 277 292 305 311 317 323 328 333 336 337 337 337 336 330 317 300 283 274 269 267 263 259 258 258
237 236 235 235 236 237 238 237 235 233 233 234 231 231 232 236 247 259 274 288 299 307 314 323 329 333 335 334 335 333 331 329 326 317 301 285 274 269 267 264 261 258
238 237 235 233 231 233 236 236 236 237 236 236 234 234 236 240 249 259 274 286 294 300 311 323 328 330 331 329 330 329 327 325 324 321 315 305 292 278 270 267 266 264
236 235 233 230 226 227 233 235 237 238 238 237 237 239 242 246 254 264 276 283 286 295 310 322 325 326 326 326 326 325 324 324 324 323 319 315 309 299 284 273 269 267
234 234 230 226 224 225 230 233 235 236 235 237 238 242 246 251 260 269 274 276 281 297 313 320 323 324 324 323 323 322 323 323 322 321 319 316 312 307 301 289 276 268
233 233 228 224 223 224 228 231 234 234 234 237 240 243 248 254 261 267 270 276 291 309 318 321 321 320 319 319 319 318 318 318 316 314 312 311 309 306 303 297 286 275
232 231 226 224 224 224 227 229 231 233 234 237 241 244 248 254 260 265 270 286 307 316 318 319 317 315 314 314 314 313 312 311 309 307 306 305 303 301 299 295 290 284
230 229 224 223 225 225 227 228 229 230 233 237 240 243 248 253 258 266 279 301 315 316 314 312 310 310 310 310 309 309 307 306 304 302 302 301 298 295 292 289 288 287
228 226 223 223 225 226 226 227 228 228 230 233 237 241 246 252 261 275 294 308 311 309 308 307 307 307 307 308 309 309 307 305 304 302 300 299 297 293 290 288 289 288
226 224 223 223 224 225 226 226 227 228 228 231 235 240 246 255 269 289 301 305 305 305 305 303 303 305 308 311 313 313 312 308 305 304 302 301 300 299 296 295 294 293
226 223 222 222 222 222 224 225 226 228 230 234 238 241 249 263 278 292 300 303 303 302 300 299 302 308 314 317 317 316 313 309 305 304 303 302 302 300 298 297 296 295
229 224 220 221 221 220 222 224 225 229 233 236 240 246 258 270 280 291 299 300 297 295 295 299 307 315 319 319 319 318 316 311 306 303 301 300 298 296 294 292 291 290
229 226 222 221 220 219 220 222 224 229 234 237 245 257 266 274 284 292 292 290 290 293 299 309 315 318 319 319 318 318 316 313 309 303 299 297 295 293 291 288 287 286
230 229 228 225 222 221 221 221 225 229 234 242 255 264 271 278 283 284 284 288 294 301 309 314 314 314 314 313 313 313 312 311 308 302 297 295 294 293 292 290 288 287
230 231 233 229 223 221 221 222 226 231 238 252 262 268 272 277 279 281 286 294 301 306 307 307 306 307 308 308 308 309 309 308 306 302 298 297 296 296 295 295 293 290
221 227 232 229 223 221 221 222 226 234 248 260 263 267 271 275 279 284 290 297 299 299 299 299 302 305 306 307 307 306 306 305 303 300 298 297 297 297 296 296 295 294
214 220 224 223 220 219 219 220 225 238 250 258 261 266 271 274 279 284 288 290 291 293 297 302 306 308 308 307 306 305 303 301 299 297 295 295 295 295 295 295 295 294
213 215 213 213 215 215 214 213 222 237 248 256 261 265 268 272 278 281 283 286 292 300 306 309 310 310 308 306 305 303 300 297 295 293 292 292 291 291 292 291 291 292
211 206 202 206 210 207 205 209 223 239 247 254 259 262 267 272 276 279 285 295 305 311 312 312 312 310 308 306 304 302 299 296 293 291 289 288 288 288 288 288 288 289
200 196 196 200 200 198 201 213 226 236 243 250 256 261 266 272 277 285 297 308 314 314 315 317 320 319 316 311 307 304 301 298 294 291 288 287 286 286 286 286 286 285
195 194 193 192 191 194 203 217 224 233 243 250 256 260 267 276 286 298 309 314 316 318 322 327 329 329 326 320 315 311 306 302 299 295 291 288 286 285 284 283 282 281
193 192 188 186 188 197 211 222 229 238 247 252 258 265 276 292 304 312 318 320 322 323 325 327 329 330 330 326 321 316 310 305 301 297 294 291 289 287 284 281 280 279
187 184 183 183 191 206 218 228 235 242 250 256 263 276 296 314 316 313 314 319 322 322 323 324 326 329 330 327 323 319 312 306 302 298 296 294 292 289 287 284 282 281
183 181 184 185 192 208 218 225 231 240 252 263 279 302 321 323 313 302 305 314 319 320 320 322 326 329 331 328 324 321 314 306 300 297 296 295 293 292 290 287 285 283